Savanna, IA

8:33 PM CDT on September 19, 2017 (GMT -0500)
Tri-Township

Weather History for KSFY - February, 2014

Change the Weather History Date:

Sunday, February 16, 2014

  Actual Average (KCWI) Record (KCWI)
Temperature  
Mean Temperature 21 °F -  
Max Temperature 27 °F 34 °F 60 °F (1981)
Min Temperature 15 °F 17 °F -11 °F (1958)
Degree Days  
Heating Degree Days 44    
Moisture  
Dew Point 13 °F    
Average Humidity 74    
Maximum Humidity 86    
Minimum Humidity 56    
Precipitation  
Precipitation 0.01 in - - ()
Sea Level Pressure  
Sea Level Pressure 30.15 in    
Wind  
Wind Speed 5 mph (NE)    
Max Wind Speed 13 mph    
Max Gust Speed 16 mph    
Visibility 9 miles    
Events Snow    
Averages and records for this station are not official NWS values.
T = Trace of Precipitation, MM = Missing Value Source: NWS Daily Summary

Daily Weather History Graph

Daily Weather History Graph

Search for Another Location

Airport or City:

Trip Planner

Search our weather history database for the weather conditions in past years. The results will help you decide how hot, cold, wet, or windy it might be!

Date:

Astronomy

Feb. 16, 2014 Rise Set
Actual Time 6:55 AM CST 5:34 PM CST
Civil Twilight 6:26 AM CST 6:03 PM CST
Nautical Twilight 5:53 AM CST 6:35 PM CST
Astronomical Twilight 5:21 AM CST 7:08 PM CST
Moon 7:34 PM CST (2/16) 7:22 AM CST (2/16)
Length of Visible Light 11h 36m
Length of Day
10h 39m
Full, 97% of the Moon is Illuminated
Feb 16
Full
Feb 22
Last Quarter
Mar 1
New
Mar 8
First Quarter
Mar 16
Full

Hourly Weather History & Observations

Time (CST) Temp. Windchill Dew Point Humidity Pressure Visibility Wind Dir Wind Speed Gust Speed Precip Events Conditions
12:15 AM 18.1 °F - 14.5 °F 86% 29.96 in 10.0 mi Calm Calm - N/A   Overcast
12:35 AM 18.0 °F - 14.5 °F 86% 29.96 in 10.0 mi Calm Calm - N/A   Overcast
12:55 AM 18.0 °F - 14.5 °F 86% 29.97 in 7.0 mi Calm Calm - N/A   Overcast
1:15 AM 18.0 °F - 14.5 °F 86% 29.97 in 10.0 mi Calm Calm - N/A   Overcast
1:35 AM 18.1 °F - 14.7 °F 86% 29.96 in 7.0 mi Calm Calm - N/A   Overcast
1:55 AM 18.3 °F - 14.9 °F 86% 29.97 in 7.0 mi Calm Calm - N/A   Overcast
2:15 AM 18.3 °F 13.1 °F 14.9 °F 86% 29.97 in 7.0 mi NW 3.5 mph - N/A   Overcast
2:35 AM 18.5 °F 13.3 °F 15.1 °F 86% 29.98 in 7.0 mi NW 3.5 mph - N/A   Overcast
2:55 AM 18.5 °F 13.3 °F 14.9 °F 86% 29.98 in 7.0 mi NW 3.5 mph - N/A   Overcast
3:15 AM 18.9 °F 12.1 °F 15.1 °F 85% 29.99 in 7.0 mi WNW 4.6 mph - N/A   Overcast
3:35 AM 18.9 °F 12.1 °F 14.9 °F 85% 29.99 in 7.0 mi North 4.6 mph - N/A   Overcast
3:55 AM 18.0 °F 8.7 °F 13.8 °F 84% 30.00 in 7.0 mi NNW 6.9 mph - N/A   Mostly Cloudy
4:15 AM 18.5 °F 5.5 °F 14.4 °F 84% 30.03 in 7.0 mi NW 12.7 mph - N/A   Mostly Cloudy
4:35 AM 19.2 °F 7.0 °F 14.7 °F 83% 30.04 in 7.0 mi NNW 11.5 mph - N/A   Overcast
4:55 AM 19.2 °F 7.7 °F 14.5 °F 82% 30.05 in 7.0 mi NW 10.4 mph - N/A   Overcast
5:15 AM 18.5 °F 9.3 °F 14.0 °F 83% 30.07 in 7.0 mi WNW 6.9 mph - N/A   Overcast
5:35 AM 18.1 °F 7.1 °F 13.3 °F 81% 30.07 in 7.0 mi NW 9.2 mph - N/A   Mostly Cloudy
5:55 AM 17.6 °F 9.3 °F 12.9 °F 82% 30.07 in 7.0 mi NW 5.8 mph - N/A   Mostly Cloudy
6:15 AM 16.7 °F 6.2 °F 12.2 °F 82% 30.08 in 7.0 mi WNW 8.1 mph - N/A   Scattered Clouds
6:35 AM 15.8 °F 8.6 °F 11.8 °F 84% 30.10 in 7.0 mi West 4.6 mph - N/A   Clear
6:55 AM 16.0 °F 10.4 °F 12.2 °F 85% 30.12 in 7.0 mi West 3.5 mph - N/A   Scattered Clouds
7:15 AM 15.6 °F 8.3 °F 11.8 °F 85% 30.13 in 7.0 mi West 4.6 mph - N/A   Mostly Cloudy
7:35 AM 15.1 °F 9.4 °F 11.3 °F 85% 30.14 in 7.0 mi West 3.5 mph - N/A   Mostly Cloudy
7:55 AM 15.4 °F 8.1 °F 11.5 °F 84% 30.16 in 7.0 mi WNW 4.6 mph - N/A   Mostly Cloudy
8:15 AM 16.2 °F 9.0 °F 11.7 °F 82% 30.17 in 7.0 mi WNW 4.6 mph - N/A Snow Light Snow
8:35 AM 16.7 °F 9.6 °F 11.8 °F 81% 30.17 in 5.0 mi NW 4.6 mph - N/A Snow Light Snow
8:55 AM 19.6 °F 10.6 °F 13.1 °F 76% 30.17 in 7.0 mi NW 6.9 mph - N/A   Clear
9:15 AM 20.1 °F 10.3 °F 13.1 °F 74% 30.19 in 7.0 mi NW 8.1 mph - N/A   Scattered Clouds
9:35 AM 21.2 °F 12.6 °F 13.1 °F 71% 30.20 in 10.0 mi NW 6.9 mph - N/A   Scattered Clouds
9:55 AM 21.7 °F 12.3 °F 13.3 °F 70% 30.21 in 10.0 mi NW 8.1 mph - N/A   Clear
10:15 AM 22.1 °F 11.3 °F 13.1 °F 68% 30.21 in 10.0 mi North 10.4 mph - N/A   Clear
10:35 AM 22.5 °F 11.1 °F 13.1 °F 67% 30.21 in 10.0 mi North 11.5 mph - N/A   Clear
10:55 AM 23.2 °F 13.3 °F 13.1 °F 65% 30.21 in 10.0 mi North 9.2 mph - N/A   Clear
11:15 AM 23.9 °F 14.2 °F 13.3 °F 64% 30.20 in 10.0 mi North 9.2 mph - N/A   Clear
11:35 AM 24.4 °F 14.9 °F 13.3 °F 63% 30.21 in 10.0 mi NNE 9.2 mph - N/A   Clear
11:55 AM 24.8 °F 16.1 °F 13.3 °F 62% 30.21 in 10.0 mi NE 8.1 mph - N/A   Clear
12:15 PM 24.8 °F 17.9 °F 13.5 °F 62% 30.21 in 10.0 mi NE 5.8 mph - N/A   Clear
12:35 PM 26.6 °F 22.6 °F 13.5 °F 58% 30.21 in 10.0 mi East 3.5 mph - N/A   Clear
12:55 PM 26.4 °F 20.9 °F 13.3 °F 58% 30.20 in 10.0 mi ENE 4.6 mph - N/A   Clear
1:15 PM 26.1 °F - 13.1 °F 58% 30.20 in 10.0 mi Calm Calm - N/A   Clear
1:35 PM 26.4 °F 20.9 °F 13.3 °F 58% 30.19 in 10.0 mi ENE 4.6 mph - N/A   Clear
1:55 PM 26.4 °F 18.0 °F 12.9 °F 57% 30.20 in 10.0 mi ENE 8.1 mph - N/A   Clear
2:15 PM 27.5 °F 20.2 °F 13.8 °F 56% 30.20 in 10.0 mi East 6.9 mph - N/A   Clear
2:35 PM 26.6 °F 20.0 °F 13.5 °F 58% 30.20 in 10.0 mi East 5.8 mph - N/A   Clear
2:55 PM 25.0 °F 18.1 °F 13.5 °F 62% 30.21 in 10.0 mi East 5.8 mph - N/A   Clear
3:15 PM 23.9 °F 16.8 °F 12.7 °F 62% 30.21 in 10.0 mi East 5.8 mph - N/A   Clear
3:35 PM 23.2 °F 17.2 °F 12.2 °F 63% 30.22 in 10.0 mi ESE 4.6 mph - N/A   Clear
3:55 PM 23.0 °F 15.8 °F 12.2 °F 63% 30.23 in 10.0 mi East 5.8 mph - N/A   Clear
4:15 PM 23.5 °F 16.4 °F 12.0 °F 61% 30.23 in 10.0 mi East 5.8 mph - N/A   Clear
4:35 PM 21.9 °F 15.7 °F 12.0 °F 66% 30.23 in 10.0 mi East 4.6 mph - N/A   Clear
4:55 PM 21.0 °F 12.4 °F 11.3 °F 66% 30.23 in 10.0 mi East 6.9 mph - N/A   Clear
5:15 PM 19.9 °F 12.1 °F 10.9 °F 68% 30.23 in 10.0 mi East 5.8 mph - N/A   Clear
5:35 PM 18.5 °F 13.3 °F 11.3 °F 73% 30.24 in 10.0 mi ESE 3.5 mph - N/A   Clear
5:55 PM 18.7 °F 11.9 °F 11.3 °F 73% 30.24 in 10.0 mi East 4.6 mph - N/A   Clear
6:15 PM 18.7 °F 10.6 °F 11.5 °F 74% 30.24 in 10.0 mi East 5.8 mph - N/A   Clear
6:35 PM 18.9 °F 13.7 °F 11.7 °F 74% 30.24 in 10.0 mi East 3.5 mph - N/A   Clear
6:55 PM 19.2 °F - 12.0 °F 74% 30.25 in 10.0 mi Calm Calm - N/A   Clear
7:15 PM 19.8 °F - 12.6 °F 74% 30.24 in 10.0 mi Calm Calm - N/A   Clear
7:35 PM 19.6 °F - 12.4 °F 74% 30.24 in 10.0 mi Calm Calm - N/A   Clear
7:55 PM 19.4 °F - 12.7 °F 75% 30.25 in 10.0 mi Calm Calm - N/A   Scattered Clouds
8:15 PM 19.2 °F 12.5 °F 13.1 °F 77% 30.23 in 10.0 mi East 4.6 mph - N/A   Mostly Cloudy
8:35 PM 19.9 °F 9.3 °F 12.7 °F 74% 30.21 in 10.0 mi East 9.2 mph - N/A   Overcast
8:55 PM 20.3 °F 10.6 °F 13.1 °F 74% 30.21 in 10.0 mi ESE 8.1 mph - N/A   Overcast
9:15 PM 21.4 °F 11.1 °F 13.5 °F 72% 30.23 in 10.0 mi ESE 9.2 mph - N/A   Overcast
9:35 PM 21.2 °F 13.6 °F 13.8 °F 73% 30.24 in 10.0 mi ESE 5.8 mph - N/A   Overcast
9:55 PM 21.2 °F 10.9 °F 13.8 °F 73% 30.22 in 10.0 mi East 9.2 mph - N/A   Overcast
10:15 PM 21.2 °F 12.6 °F 14.0 °F 74% 30.21 in 10.0 mi East 6.9 mph - N/A   Overcast
10:35 PM 21.2 °F 10.9 °F 14.0 °F 74% 30.21 in 10.0 mi East 9.2 mph - N/A   Overcast
10:55 PM 21.6 °F 10.6 °F 14.4 °F 74% 30.21 in 10.0 mi ESE 10.4 mph - N/A   Overcast
11:15 PM 21.9 °F 10.4 °F 14.4 °F 73% 30.20 in 10.0 mi ESE 11.5 mph 16.1 mph N/A   Overcast
11:35 PM 22.1 °F 10.0 °F 14.9 °F 74% 30.18 in 10.0 mi ESE 12.7 mph - N/A   Overcast
11:55 PM 22.3 °F 10.8 °F 14.9 °F 73% 30.18 in 10.0 mi ESE 11.5 mph - N/A   Overcast